Weather History for KACT - November, 2011

Change the Weather History Date:

Tuesday, November 22, 2011

  Actual Average Record
Temperature  
Mean Temperature 52 °F 55 °F  
Max Temperature 57 °F 66 °F 87 °F (1983)
Min Temperature 47 °F 44 °F 27 °F (1975)
Degree Days  
Heating Degree Days 13 11  
Month to date heating degree days 136 163  
Since 1 July heating degree days 202 230  
Cooling Degree Days 0 1  
Month to date cooling degree days 57 34  
Year to date cooling degree days 3827 2790  
Growing Degree Days 2 (Base 50)    
Moisture  
Dew Point 48 °F    
Average Humidity 83    
Maximum Humidity 93    
Minimum Humidity 72    
Precipitation  
Precipitation 0.75 in 0.09 in 2.44 in (1916)
Month to date precipitation 1.88 2.15  
Year to date precipitation 22.15 31.27  
Snow  
Snow 0.00 in 0.00 in 6.50 in (1937)
Month to date snowfall 0.0 0.1  
Since 1 July snowfall 0.0 0.1  
Since 1 September snowfall 0.0 0.1  
Snow Depth 0.00 in    
Sea Level Pressure  
Sea Level Pressure 30.04 in    
Wind  
Wind Speed 9 mph (NW)    
Max Wind Speed 21 mph    
Max Gust Speed 25 mph    
Visibility 8 miles    
Events Rain , Thunderstorm    
T = Trace of Precipitation, MM = Missing Value Source: NWS Daily Summary

Daily Weather History Graph

Daily Weather History Graph

Search for Another Location

Airport or City:

Trip Planner

Search our weather history database for the weather conditions in past years. The results will help you decide how hot, cold, wet, or windy it might be!

Date:

Astronomy

Nov. 22, 2011 Rise Set
Actual Time 7:02 AM CST 5:26 PM CST
Civil Twilight 6:36 AM CST 5:53 PM CST
Nautical Twilight 6:07 AM CST 6:22 PM CST
Astronomical Twilight 5:37 AM CST 6:51 PM CST
Moon 4:02 AM CST (11/22) 3:21 PM CST (11/22)
Length of Visible Light 11h 16m
Length of Day
10h 24m
Waning Crescent, 9% of the Moon is Illuminated
Nov 22
Waning Crescent
Nov 25
New
Dec 2
First Quarter
Dec 10
Full
Dec 17
Last Quarter

Hourly Weather History & Observations

Time (CST) Temp. Dew Point Humidity Pressure Visibility Wind Dir Wind Speed Gust Speed Precip Events Conditions
12:21 AM 53.6 °F 51.8 °F 94% 29.97 in 4.0 mi North 19.6 mph 25.3 mph 0.08 in Rain Rain
12:32 AM 51.8 °F 50.0 °F 94% 29.96 in 9.0 mi North 15.0 mph - 0.09 in Rain , Thunderstorm Light Rain
12:51 AM 52.0 °F 50.0 °F 93% 29.98 in 8.0 mi NW 10.4 mph 19.6 mph 0.14 in Rain , Thunderstorm Light Rain
1:00 AM 51.8 °F 48.2 °F 88% 29.97 in 7.0 mi NNW 8.1 mph 18.4 mph 0.01 in Rain , Thunderstorm Light Rain
1:17 AM 51.8 °F 48.2 °F 88% 29.98 in 4.0 mi North 15.0 mph - 0.05 in Rain Heavy Rain
1:23 AM 51.8 °F 48.2 °F 88% 29.97 in 2.5 mi NNW 8.1 mph - 0.10 in Rain Heavy Rain
1:32 AM 51.8 °F 48.2 °F 88% 29.97 in 3.0 mi NW 9.2 mph - 0.16 in Rain , Thunderstorm Heavy Thunderstorms and Rain
1:35 AM 51.8 °F 48.2 °F 88% 29.97 in 2.5 mi NW 6.9 mph - 0.18 in Rain , Thunderstorm Heavy Thunderstorms and Rain
1:47 AM 51.8 °F 48.2 °F 88% 29.99 in 1.5 mi WNW 6.9 mph - 0.33 in Rain , Thunderstorm Heavy Thunderstorms and Rain
1:51 AM 51.1 °F 48.9 °F 92% 29.97 in 1.2 mi West 4.6 mph - 0.40 in Rain , Thunderstorm Heavy Thunderstorms and Rain
1:59 AM 51.8 °F 48.2 °F 88% 29.95 in 2.0 mi NW 11.5 mph - 0.09 in Rain , Thunderstorm Thunderstorms and Rain
2:08 AM 51.8 °F 48.2 °F 88% 29.96 in 9.0 mi NNW 8.1 mph - 0.10 in Rain , Thunderstorm Light Rain
2:38 AM 51.8 °F 48.2 °F 88% 29.95 in 10.0 mi NNW 11.5 mph - 0.11 in Rain Light Rain
2:48 AM 51.8 °F 48.2 °F 88% 29.95 in 9.0 mi NNW 8.1 mph - 0.12 in Rain , Thunderstorm Light Rain
2:51 AM 51.1 °F 48.9 °F 92% 29.95 in 10.0 mi NW 9.2 mph - 0.12 in Rain , Thunderstorm Light Rain
2:59 AM 51.8 °F 48.2 °F 88% 29.97 in 10.0 mi WNW 5.8 mph - 0.00 in Rain , Thunderstorm Light Rain
3:04 AM 51.8 °F 48.2 °F 88% 29.96 in 3.0 mi Variable 4.6 mph - 0.03 in Rain Heavy Rain
3:08 AM 51.8 °F 48.2 °F 88% 29.96 in 2.0 mi WNW 5.8 mph - 0.07 in Rain , Thunderstorm Heavy Thunderstorms and Rain
3:18 AM 51.8 °F 48.2 °F 88% 29.95 in 10.0 mi NNW 6.9 mph - 0.09 in Thunderstorm Thunderstorm
3:29 AM 51.8 °F 48.2 °F 88% 29.96 in 10.0 mi WNW 4.6 mph - 0.10 in Rain Light Rain
3:51 AM 51.1 °F 46.9 °F 86% 29.96 in 10.0 mi NW 6.9 mph - 0.10 in   Overcast
4:02 AM 51.8 °F 48.2 °F 88% 29.95 in 10.0 mi NW 6.9 mph - N/A   Scattered Clouds
4:51 AM 51.1 °F 46.9 °F 86% 29.96 in 10.0 mi NW 8.1 mph - N/A   Mostly Cloudy
5:33 AM 51.8 °F 46.4 °F 82% 29.97 in 10.0 mi NNW 8.1 mph - N/A   Mostly Cloudy
5:51 AM 51.1 °F 48.0 °F 89% 29.99 in 10.0 mi NNW 11.5 mph - N/A   Overcast
6:51 AM 50.0 °F 46.9 °F 89% 30.01 in 10.0 mi NNW 10.4 mph - N/A   Overcast
7:13 AM 50.0 °F 46.4 °F 87% 30.03 in 10.0 mi NNW 15.0 mph 21.9 mph N/A   Overcast
7:51 AM 50.0 °F 46.0 °F 86% 30.05 in 10.0 mi NW 12.7 mph - N/A   Overcast
8:16 AM 50.0 °F 46.4 °F 87% 30.07 in 10.0 mi NW 13.8 mph - N/A   Overcast
8:51 AM 50.0 °F 46.0 °F 86% 30.08 in 10.0 mi NW 12.7 mph - N/A   Overcast
9:51 AM 50.0 °F 46.0 °F 86% 30.10 in 10.0 mi NW 9.2 mph - N/A   Overcast
10:51 AM 51.1 °F 46.9 °F 86% 30.11 in 10.0 mi NW 12.7 mph - N/A   Overcast
11:21 AM 53.6 °F 46.4 °F 77% 30.11 in 10.0 mi NNW 12.7 mph 19.6 mph N/A   Overcast
11:51 AM 54.0 °F 46.9 °F 77% 30.10 in 10.0 mi NNW 12.7 mph - N/A   Overcast
12:10 PM 55.4 °F 46.4 °F 72% 30.10 in 10.0 mi NW 9.2 mph - N/A   Overcast
12:51 PM 55.4 °F 48.2 °F 77% 30.09 in 10.0 mi NW 11.5 mph - N/A   Overcast
1:51 PM 55.9 °F 48.0 °F 75% 30.08 in 10.0 mi NW 12.7 mph - N/A   Overcast
2:51 PM 57.0 °F 48.9 °F 74% 30.09 in 10.0 mi NNW 12.7 mph - N/A   Overcast
3:51 PM 55.9 °F 48.0 °F 75% 30.10 in 10.0 mi NNW 11.5 mph - N/A   Overcast
4:51 PM 55.9 °F 48.9 °F 77% 30.12 in 10.0 mi NNW 9.2 mph - N/A   Overcast
5:47 PM 53.6 °F 48.2 °F 82% 30.14 in 10.0 mi NW 8.1 mph - N/A   Clear
5:51 PM 54.0 °F 48.0 °F 80% 30.14 in 10.0 mi NW 8.1 mph - N/A   Clear
6:51 PM 53.1 °F 48.0 °F 83% 30.17 in 10.0 mi NW 6.9 mph - N/A   Clear
7:51 PM 51.1 °F 46.9 °F 86% 30.19 in 10.0 mi WNW 4.6 mph - N/A   Clear
8:51 PM 48.9 °F 45.0 °F 86% 30.21 in 10.0 mi Calm Calm - N/A   Clear
9:51 PM 48.9 °F 46.0 °F 90% 30.22 in 10.0 mi NW 5.8 mph - N/A   Clear
10:51 PM 50.0 °F 46.0 °F 86% 30.23 in 10.0 mi NW 6.9 mph - N/A   Clear
11:51 PM 51.1 °F 46.0 °F 83% 30.23 in 10.0 mi NW 6.9 mph - N/A   Clear